Home > Weather > Aberdeen > Past weeks

Flag for United Kingdom Weather for the Past 2 Weeks in Aberdeen, Scotland, United Kingdom

Now
41 °F

Scattered clouds.


Feels Like: 35 °F
Forecast: N/A
Wind: 10 mph from North

Location: Aberdeen / Dyce

Current Time: Feb 11, 2016 at 3:22:01 PM

Latest Report: Feb 11, 2016 at 2:50 PM


Visibility: N/A

Pressure: 29.53 "Hg

Humidity: 66%

Dew point: 30 °F

Location of AberdeenLocation

Historic Weather in Aberdeen — Graph

°F

Aberdeen Temperature Yesterday

Maximum temperature yesterday: 43 °F (at 2:50 PM)
Minimum temperature yesterday: 36 °F (at 4:20 AM)
Average temperature yesterday: 38 °F

High & Low Weather Summary for the Past Weeks

 TemperatureHumidityPressure
High52 °F (Jan 29, 4:20 AM)100% (Feb 1, 12:20 AM)30.07 "Hg (Feb 1, 12:20 AM)
Low30 °F (Jan 30, 4:50 AM)53% (Jan 29, 1:20 PM)28.47 "Hg (Feb 8, 3:20 AM)
Average40 °F80%29.29 "Hg
* Reported Jan 27 2:20 PM — Feb 11 2:20 PM, Aberdeen, Weather by CustomWeather, © 2016

Note: Actual official high and low records may vary slightly from our data, if they occured in-between our weather recording intervals... More about our weather records

Advertising

Aberdeen Weather History for the Previous 24 Hours

 ConditionsComfort  
Time TempWeatherWind HumidityBarometerVisibility
2:20 PM
Thu, Feb 11
43 °FScattered clouds.10 mph66%29.53 "HgN/A
1:50 PM43 °FScattered showers. Scattered clouds.12 mph66%29.53 "HgN/A
1:20 PM43 °FScattered showers. Scattered clouds.9 mph71%29.53 "HgN/A
12:50 PM41 °FScattered showers. Scattered clouds.9 mph76%29.53 "HgN/A
12:20 PM43 °FScattered clouds.9 mph76%29.53 "HgN/A
11:50 AM41 °FScattered clouds.10 mph81%29.50 "HgN/A
11:20 AM43 °FScattered showers. Partly sunny.10 mph76%29.50 "HgN/A
10:50 AM41 °FPartly sunny.10 mph81%29.50 "HgN/A
10:20 AM39 °FPartly sunny.9 mph87%29.50 "HgN/A
9:50 AM39 °FPartly sunny.9 mph87%29.50 "HgN/A
9:20 AM39 °FBroken clouds.9 mph87%29.47 "HgN/A
8:50 AM39 °FPartly sunny.8 mph93%29.47 "Hg6 mi
8:20 AM37 °FLight rain. Partly sunny.9 mph100%29.47 "Hg4 mi
7:50 AM37 °FLight rain. Partly sunny.8 mph100%29.45 "Hg4 mi
7:20 AM37 °FLight rain. Passing clouds.12 mph93%29.45 "Hg4 mi
6:50 AM36 °FSprinkles. Passing clouds.12 mph93%29.45 "Hg5 mi
6:20 AM36 °FMostly cloudy.13 mph93%29.45 "HgN/A
5:50 AM36 °FSnow flurries. Mostly cloudy.13 mph93%29.45 "Hg4 mi
5:20 AM36 °FPassing clouds.14 mph93%29.42 "HgN/A
4:50 AM36 °FSprinkles. Partly cloudy.13 mph87%29.42 "HgN/A
4:20 AM37 °FPassing clouds.13 mph81%29.42 "HgN/A
3:50 AM36 °FPassing clouds.12 mph87%29.42 "HgN/A
3:20 AM37 °FPassing clouds.16 mph75%29.42 "HgN/A
2:20 AM37 °FChilly.13 mph70%29.42 "HgN/A
1:50 AM36 °FClear.12 mph75%29.42 "Hg10 mi
1:20 AM36 °FChilly.9 mph75%29.42 "HgN/A
12:50 AM37 °FChilly.13 mph70%29.42 "HgN/A
12:20 AM36 °FChilly.13 mph81%29.42 "HgN/A
11:50 PM
Wed, Feb 10
36 °FClear.12 mph81%29.42 "Hg10 mi
11:20 PM36 °FChilly.12 mph81%29.42 "HgN/A
10:50 PM36 °FClear.13 mph81%29.42 "Hg10 mi
10:20 PM36 °FClear.13 mph81%29.39 "Hg10 mi
9:50 PM36 °FClear.12 mph81%29.39 "Hg10 mi
9:20 PM36 °FClear.10 mph81%29.39 "Hg10 mi
8:50 PM36 °FPassing clouds.10 mph81%29.39 "HgN/A
8:20 PM36 °FClear.10 mph81%29.39 "Hg10 mi
7:50 PM36 °FClear.10 mph81%29.39 "Hg10 mi
7:20 PM36 °FClear.10 mph81%29.39 "Hg10 mi
6:50 PM37 °FPassing clouds.9 mph75%29.39 "HgN/A
6:20 PM36 °FClear.8 mph81%29.36 "Hg10 mi
5:50 PM37 °FClear.8 mph75%29.36 "Hg10 mi
5:20 PM37 °FPassing clouds.9 mph75%29.36 "HgN/A
4:50 PM39 °FPassing clouds.9 mph70%29.36 "HgN/A
4:20 PM39 °FPassing clouds.12 mph70%29.36 "HgN/A
3:50 PM41 °FPassing clouds.10 mph66%29.33 "HgN/A
3:20 PM41 °FScattered clouds.13 mph66%29.33 "HgN/A
Weather by CustomWeather, © 2016

See weather overviewHow to use our weather pages